[[{"header":{"parameterUnit":"m.s-1","parameterCategory":1,"la1":30.2991,"la2":30.254,"lo1":-89.0895,"lo2":-89.0444,"dy":0.0017,"dx":0.0017,"nx":28,"ny":28,"refTime":"2025-04-07T21:00:00:Z","depth":0,"parameterNumber":2,"parameterNumberName":"U-component_of_WINDS"},"data":[0,0,0,0,0,0,0,0,0,0,0,0,0,0,0,0,0,0,0,0,0,0,0,0,0,0,0,0,0,0,0,0,0,0,0,0,0,0,0,0,0,0,0,0,0,0,0,0,0,0,0,0,0,0,0,0,0,0,-0.2671,-0.2671,0,-0.2595,-0.2594,-0.2594,-0.2528,-0.2527,-0.2526,-0.2526,-0.2447,-0.2446,-0.2445,0,0,0,0,0,0,0,0,0,0,0,0,0,-0.276,-0.2758,-0.2671,-0.267,-0.267,-0.2595,-0.2594,-0.2593,-0.2528,-0.2527,-0.2526,-0.2525,-0.2448,-0.2446,-0.2444,0,0,0,0,0,0,0,0,0,0,0,0,0,-0.2706,-0.2758,-0.2672,-0.2628,-0.2623,-0.2596,-0.2594,-0.2593,-0.2528,-0.2527,-0.2526,-0.2525,-0.2448,-0.2446,-0.2444,-0.2454,0,0,-0.2438,-0.2437,0,0,0,0,0,0,0,0,-0.2709,-0.2703,-0.2635,-0.2631,-0.2626,-0.257,-0.2597,-0.2546,-0.2528,-0.2564,-0.2526,-0.2524,-0.2489,-0.2483,-0.2472,-0.245,-0.2446,-0.2438,-0.2436,-0.2435,-0.2435,0,0,0,0,0,0,0,-0.2713,-0.2706,-0.2641,-0.2634,-0.2629,-0.2612,-0.2603,-0.2587,-0.2534,-0.2561,-0.2556,-0.2548,-0.2486,-0.2474,-0.2469,-0.2445,-0.2438,-0.2436,-0.2435,-0.2434,-0.2428,-0.2429,0,0,0,0,0,0,-0.2724,-0.271,-0.2644,-0.2639,-0.2666,-0.2611,-0.2602,-0.2589,-0.2534,-0.2524,-0.2549,-0.2545,-0.2478,-0.2472,-0.2466,-0.2474,-0.2435,-0.2434,-0.2432,-0.2427,-0.2428,-0.2429,0,0,0,0,0,0,-0.2726,-0.2718,-0.2647,-0.2673,-0.2663,-0.2611,-0.2597,-0.2588,-0.2576,-0.2525,-0.2515,-0.2546,-0.2477,-0.2469,-0.2457,-0.247,-0.2433,-0.2431,-0.2426,-0.2427,-0.2429,-0.2489,0,0,0,0,0,0,-0.2729,-0.272,-0.2723,-0.2673,-0.2661,-0.2639,-0.2598,-0.2587,-0.2572,-0.2567,-0.2519,-0.2511,-0.2475,-0.2461,-0.2455,-0.2467,-0.2429,-0.2424,-0.2426,-0.2428,-0.2486,-0.2493,-0.2499,0,0,0,0,0,-0.2732,-0.2743,-0.2723,-0.2716,-0.2664,-0.264,-0.2633,-0.2593,-0.2574,-0.2576,-0.2544,-0.2512,-0.247,-0.246,-0.2453,-0.2464,-0.2423,-0.2426,-0.2428,-0.2483,-0.2492,-0.2499,0,0,0,0,0,0,-0.2794,-0.2735,-0.2713,-0.2708,-0.268,-0.2629,-0.2631,-0.2603,-0.2579,-0.2575,-0.2525,-0.2515,-0.2509,-0.2485,-0.2476,-0.2471,-0.2442,-0.2444,-0.2487,-0.2494,-0.25,-0.2506,-0.2427,0,0,0,0,0,-0.2807,-0.2793,-0.2742,-0.2743,-0.273,-0.2683,-0.2671,-0.2642,-0.2611,-0.2598,-0.2565,-0.2535,-0.2515,-0.2503,-0.2482,-0.2482,-0.2471,-0.2486,-0.2493,-0.2498,-0.25,-0.2499,-0.2506,-0.2437,-0.2437,-0.2437,0,0,-0.2834,-0.28,-0.2794,-0.2754,-0.2729,-0.2715,-0.2673,-0.266,-0.265,-0.2596,-0.2583,-0.2558,-0.2522,-0.2516,-0.2512,-0.2496,-0.2517,-0.2502,-0.2506,-0.2505,-0.2502,-0.2509,-0.2515,-0.2439,-0.2439,-0.2439,0,0,-0.2877,-0.2849,-0.2847,-0.2823,-0.2785,-0.2754,-0.2754,-0.2707,-0.2688,-0.2675,-0.2634,-0.2621,-0.2588,-0.2564,-0.2547,-0.2581,-0.2552,-0.2576,-0.2609,-0.2609,-0.2614,-0.2619,-0.2631,-0.2637,-0.2577,-0.2578,-0.2578,0,-0.2915,-0.2893,-0.2849,-0.2839,-0.2823,-0.2774,-0.2772,-0.275,-0.2707,-0.2697,-0.268,-0.2638,-0.261,-0.2598,-0.2607,-0.2595,-0.2593,-0.2581,-0.2617,-0.2621,-0.2625,-0.2636,-0.2641,-0.2581,-0.258,-0.258,-0.258,0,-0.2942,-0.2927,-0.293,-0.289,-0.2874,-0.2868,-0.2824,-0.2813,-0.2785,-0.2756,-0.2743,-0.2708,-0.2679,-0.2674,-0.2647,-0.2659,-0.2651,-0.2626,-0.2597,-0.2635,-0.2645,-0.2649,-0.2585,-0.2584,-0.2583,-0.2582,0,0,-0.3021,-0.2958,-0.296,-0.2942,-0.2897,-0.2884,-0.2876,-0.2848,-0.284,-0.2812,-0.2804,-0.2777,-0.2754,-0.2736,-0.2706,-0.2705,-0.2735,-0.268,-0.2679,-0.2692,-0.2747,-0.2766,-0.2772,-0.2715,-0.2716,-0.2716,-0.275,0,-0.3056,-0.3039,-0.3,-0.2994,-0.298,-0.2934,-0.2927,-0.2899,-0.2871,-0.2856,-0.2825,-0.2807,-0.2778,-0.2767,-0.2764,-0.2732,-0.2746,-0.2729,-0.2708,-0.2707,-0.2719,-0.2777,-0.2797,-0.2831,-0.2754,-0.2754,-0.2755,0,-0.3095,-0.3071,-0.3064,-0.3021,-0.3013,-0.3008,-0.2979,-0.2965,-0.2932,-0.2912,-0.2892,-0.2859,-0.2848,-0.282,-0.2804,-0.2794,-0.2783,-0.2766,-0.2766,-0.2763,-0.2734,-0.2776,-0.284,-0.2846,-0.276,-0.276,-0.2759,0,-0.3154,-0.312,-0.3112,-0.3097,-0.3046,-0.3043,-0.3022,-0.2988,-0.2974,-0.2949,-0.2939,-0.2914,-0.29,-0.288,-0.2842,-0.2825,-0.283,-0.2799,-0.2814,-0.2815,-0.2817,-0.2818,-0.2881,-0.2809,-0.2809,-0.2809,-0.2809,0,-0.3198,-0.3196,-0.3138,-0.3133,-0.3129,-0.3084,-0.3082,-0.3056,-0.3027,-0.3016,-0.2974,-0.2965,-0.2914,-0.2899,-0.2868,-0.286,-0.2854,-0.2838,-0.283,-0.2842,-0.2844,-0.2834,-0.2831,-0.2811,-0.281,-0.281,-0.281,0,-0.3264,-0.3224,-0.3213,-0.3165,-0.3153,-0.3153,-0.3113,-0.3106,-0.3077,-0.3064,-0.3058,-0.3012,-0.2992,-0.2951,-0.292,-0.2899,-0.2899,-0.2884,-0.291,-0.2905,-0.2922,-0.2921,-0.2982,-0.2988,-0.2912,-0.2913,-0.2914,0,-0.3294,-0.3292,-0.3245,-0.3235,-0.3215,-0.3199,-0.3185,-0.3141,-0.3128,-0.309,-0.3089,-0.3066,-0.3045,-0.3015,-0.2979,-0.2955,-0.294,-0.2963,-0.2936,-0.2949,-0.2941,-0.2942,-0.2942,-0.2969,-0.297,-0.2971,-0.2972,0,-0.3353,-0.3334,-0.3315,-0.329,-0.3274,-0.3252,-0.3227,-0.3221,-0.3171,-0.3159,-0.3138,-0.3122,-0.3091,-0.3069,-0.304,-0.3017,-0.2987,-0.298,-0.2982,-0.2995,-0.3011,-0.3003,-0.2927,-0.2979,-0.2978,-0.2978,-0.2977,-0.2977,-0.3402,-0.3398,-0.3365,-0.3345,-0.3322,-0.3301,-0.3292,-0.3262,-0.3244,-0.3216,-0.319,-0.3173,-0.314,-0.3098,-0.3078,-0.3063,-0.3048,-0.3051,-0.3052,-0.3053,-0.3059,-0.3013,-0.3057,-0.3057,-0.3057,-0.3057,-0.3056,0,-0.346,-0.3436,-0.3419,-0.3386,-0.3371,-0.3343,-0.3315,-0.3304,-0.3289,-0.3261,-0.3242,-0.3219,-0.3197,-0.3159,-0.3135,-0.313,-0.3116,-0.3126,-0.3126,-0.3121,-0.3073,-0.3074,-0.3138,-0.3138,-0.3138,-0.3138,-0.3138,-0.3138,-0.3488,-0.348,-0.3457,-0.3437,-0.3413,-0.3395,-0.3382,-0.3361,-0.3339,-0.3316,-0.3298,-0.3273,-0.3242,-0.3214,-0.3194,-0.3183,-0.3176,-0.3191,-0.3176,-0.3132,-0.3124,-0.3117,-0.3118,-0.319,-0.319,-0.3225,-0.3225,-0.3226]},{"header":{"parameterUnit":"m.s-1","parameterCategory":1,"la1":30.2991,"la2":30.254,"lo1":-89.0895,"lo2":-89.0444,"dy":0.0017,"dx":0.0017,"nx":28,"ny":28,"refTime":"2025-04-07T21:00:00:Z","depth":0,"parameterNumber":3,"parameterNumberName":"V-component_of_WINDS"},"data":[0,0,0,0,0,0,0,0,0,0,0,0,0,0,0,0,0,0,0,0,0,0,0,0,0,0,0,0,0,0,0,0,0,0,0,0,0,0,0,0,0,0,0,0,0,0,0,0,0,0,0,0,0,0,0,0,0,0,-0.2058,-0.2059,0,-0.2101,-0.2102,-0.2102,-0.2098,-0.2097,-0.2097,-0.2096,-0.2142,-0.2144,-0.2146,0,0,0,0,0,0,0,0,0,0,0,0,0,-0.1973,-0.1975,-0.2058,-0.2059,-0.2059,-0.2101,-0.2102,-0.2103,-0.2098,-0.2097,-0.2097,-0.2096,-0.2141,-0.2144,-0.2146,0,0,0,0,0,0,0,0,0,0,0,0,0,-0.2013,-0.1975,-0.2058,-0.2062,-0.2063,-0.2101,-0.2102,-0.2103,-0.2098,-0.2097,-0.2096,-0.2095,-0.2141,-0.2143,-0.2146,-0.2184,0,0,-0.2155,-0.2156,0,0,0,0,0,0,0,0,-0.201,-0.2016,-0.2061,-0.2062,-0.2063,-0.2093,-0.2089,-0.213,-0.2099,-0.2085,-0.2096,-0.2095,-0.2127,-0.2131,-0.2141,-0.2186,-0.2188,-0.2155,-0.2157,-0.2158,-0.2159,0,0,0,0,0,0,0,-0.2008,-0.2014,-0.2075,-0.2062,-0.2063,-0.2062,-0.2067,-0.2097,-0.2111,-0.2086,-0.2086,-0.2091,-0.2127,-0.2138,-0.2142,-0.2189,-0.2155,-0.2157,-0.2159,-0.216,-0.2268,-0.2269,0,0,0,0,0,0,-0.2004,-0.2012,-0.2074,-0.2077,-0.2033,-0.2065,-0.207,-0.2085,-0.2111,-0.2114,-0.2092,-0.2091,-0.2134,-0.2139,-0.2144,-0.2191,-0.2158,-0.216,-0.2162,-0.2267,-0.2269,-0.227,0,0,0,0,0,0,-0.2002,-0.2009,-0.2072,-0.2044,-0.2052,-0.2067,-0.2084,-0.2086,-0.2097,-0.2115,-0.2118,-0.2101,-0.2134,-0.214,-0.2174,-0.2193,-0.2162,-0.2164,-0.2266,-0.2268,-0.2269,-0.2285,0,0,0,0,0,0,-0.1999,-0.2009,-0.2023,-0.2044,-0.2053,-0.2101,-0.2085,-0.2088,-0.2102,-0.2101,-0.2124,-0.2127,-0.2133,-0.217,-0.2177,-0.2196,-0.2166,-0.2264,-0.2267,-0.2269,-0.2283,-0.2287,-0.2291,0,0,0,0,0,-0.1996,-0.2025,-0.2023,-0.2031,-0.2071,-0.2102,-0.2108,-0.2114,-0.2103,-0.2118,-0.213,-0.2126,-0.2189,-0.2174,-0.2181,-0.2201,-0.2263,-0.2266,-0.2268,-0.2281,-0.2286,-0.2291,0,0,0,0,0,0,-0.2006,-0.2028,-0.2026,-0.2063,-0.2081,-0.2102,-0.212,-0.2119,-0.214,-0.2139,-0.2145,-0.2151,-0.2186,-0.2197,-0.2179,-0.224,-0.2225,-0.2229,-0.2232,-0.2237,-0.2241,-0.2238,-0.2169,0,0,0,0,0,-0.2012,-0.2035,-0.2053,-0.2084,-0.2093,-0.2105,-0.2119,-0.2122,-0.2141,-0.2149,-0.2163,-0.2182,-0.2206,-0.2222,-0.2244,-0.2284,-0.229,-0.2301,-0.2305,-0.2308,-0.2313,-0.2336,-0.2342,-0.2279,-0.2279,-0.2279,0,0,-0.2026,-0.2041,-0.2055,-0.2087,-0.2101,-0.2125,-0.2112,-0.2138,-0.2156,-0.2153,-0.2187,-0.2197,-0.2219,-0.2256,-0.2274,-0.2267,-0.2331,-0.2312,-0.2314,-0.2317,-0.2339,-0.2345,-0.2351,-0.2281,-0.228,-0.228,0,0,-0.2063,-0.2076,-0.2104,-0.2118,-0.214,-0.2148,-0.2154,-0.2175,-0.2182,-0.2216,-0.2214,-0.2236,-0.2277,-0.2293,-0.2307,-0.235,-0.2349,-0.2358,-0.2379,-0.2401,-0.2406,-0.2411,-0.2428,-0.2434,-0.2361,-0.2361,-0.2361,0,-0.2077,-0.2114,-0.2118,-0.2145,-0.216,-0.2157,-0.2186,-0.22,-0.2228,-0.2238,-0.223,-0.2282,-0.2296,-0.2338,-0.2349,-0.2359,-0.2368,-0.2356,-0.2405,-0.2409,-0.2414,-0.243,-0.2437,-0.2362,-0.2362,-0.2362,-0.2362,0,-0.2131,-0.2156,-0.2176,-0.2203,-0.222,-0.2247,-0.2257,-0.2273,-0.2275,-0.2284,-0.2319,-0.2336,-0.2363,-0.2373,-0.2374,-0.2415,-0.241,-0.2403,-0.2388,-0.2421,-0.2437,-0.2443,-0.2364,-0.2364,-0.2363,-0.2363,0,0,-0.2177,-0.2206,-0.2214,-0.2226,-0.225,-0.227,-0.2298,-0.2324,-0.2338,-0.2357,-0.2382,-0.2417,-0.241,-0.2426,-0.2429,-0.2449,-0.2484,-0.2439,-0.244,-0.2449,-0.2532,-0.2539,-0.2546,-0.2482,-0.2483,-0.2484,-0.2531,0,-0.2218,-0.2267,-0.2272,-0.2316,-0.2341,-0.2338,-0.2363,-0.238,-0.2389,-0.2411,-0.2421,-0.2447,-0.2435,-0.2445,-0.2464,-0.2476,-0.2501,-0.2472,-0.2507,-0.2508,-0.2503,-0.2554,-0.2561,-0.2604,-0.2537,-0.2538,-0.2539,0,-0.2273,-0.2294,-0.234,-0.2362,-0.2372,-0.2394,-0.2419,-0.2439,-0.246,-0.2465,-0.2482,-0.2483,-0.2512,-0.2495,-0.2537,-0.2517,-0.2531,-0.2539,-0.2541,-0.2546,-0.2527,-0.2562,-0.2618,-0.2625,-0.2548,-0.2547,-0.2547,0,-0.2304,-0.2344,-0.2377,-0.2388,-0.2413,-0.2429,-0.244,-0.2459,-0.2474,-0.2496,-0.2507,-0.2531,-0.2545,-0.2565,-0.2573,-0.2559,-0.2615,-0.2597,-0.2621,-0.2621,-0.2634,-0.2634,-0.2695,-0.264,-0.264,-0.264,-0.264,0,-0.235,-0.238,-0.2392,-0.2412,-0.2445,-0.2451,-0.2483,-0.2494,-0.2511,-0.2534,-0.2533,-0.2555,-0.2563,-0.2587,-0.2593,-0.2628,-0.2634,-0.264,-0.2641,-0.2641,-0.264,-0.2652,-0.265,-0.2642,-0.2641,-0.2641,-0.2641,0,-0.2391,-0.24,-0.2437,-0.2458,-0.2464,-0.2487,-0.2505,-0.2526,-0.2534,-0.2564,-0.2571,-0.2585,-0.2612,-0.2622,-0.2655,-0.2659,-0.27,-0.2698,-0.2694,-0.2695,-0.2718,-0.2717,-0.2791,-0.2801,-0.2737,-0.2738,-0.2738,0,-0.2422,-0.2444,-0.2467,-0.2483,-0.2495,-0.2519,-0.2535,-0.2542,-0.2559,-0.2583,-0.2601,-0.2629,-0.2651,-0.2696,-0.2709,-0.2735,-0.2735,-0.2759,-0.2739,-0.2738,-0.2738,-0.2737,-0.274,-0.2764,-0.2764,-0.2765,-0.2765,0,-0.2475,-0.2478,-0.2501,-0.2526,-0.2546,-0.2566,-0.2585,-0.2598,-0.2607,-0.2626,-0.2654,-0.2672,-0.2706,-0.2734,-0.2761,-0.2773,-0.2771,-0.2771,-0.2778,-0.2779,-0.2776,-0.278,-0.2706,-0.277,-0.2769,-0.2769,-0.2769,-0.2769,-0.2513,-0.2533,-0.2553,-0.2579,-0.2594,-0.2612,-0.2633,-0.2644,-0.2668,-0.2696,-0.2698,-0.273,-0.275,-0.2785,-0.2798,-0.2823,-0.2817,-0.2827,-0.283,-0.2832,-0.2835,-0.2771,-0.2828,-0.2828,-0.2828,-0.2827,-0.2827,0,-0.2568,-0.258,-0.2604,-0.2631,-0.2652,-0.2648,-0.2669,-0.2687,-0.2714,-0.2733,-0.2755,-0.2788,-0.2815,-0.283,-0.2858,-0.2875,-0.2875,-0.2882,-0.2882,-0.2885,-0.2839,-0.2831,-0.2882,-0.2882,-0.2882,-0.2882,-0.2882,-0.2882,-0.2599,-0.2634,-0.264,-0.2682,-0.2695,-0.2725,-0.2738,-0.2755,-0.277,-0.2807,-0.283,-0.2839,-0.2857,-0.2885,-0.291,-0.2914,-0.2925,-0.2933,-0.2937,-0.2894,-0.2888,-0.2883,-0.2875,-0.2935,-0.2935,-0.2981,-0.2982,-0.2982]}]]